CT1ETE Weather Reports


time (UTC)temp
C
wind
direction
speed
KPH
gust
KPH
rain 1hr
cm
rain 24hr
cm
rain mn
cm
humidity
%
barometer
mb
20200930025944 14 195 0.0 3.2 0.00 0.00 0.00 78 1017.4
20200930025935 14 195 0.0 0.0 0.00 0.00 0.00 78 1017.4
20200930024434 14 195 0.0 3.2 0.00 0.00 0.00 78 1017.4
20200930022932 14 220 0.0 0.0 0.00 0.00 0.00 77 1017.5
20200930022205 15 220 0.0 1.6 0.00 0.00 0.00 76 1017.8
20200930021429 15 220 0.0 1.6 0.00 0.00 0.00 76 1017.8
20200930015943 15 220 0.0 0.0 0.00 0.00 0.00 74 1018.0
20200930015928 15 220 0.0 0.0 0.00 0.00 0.00 76 1017.9
20200930014426 15 220 0.0 0.0 0.00 0.00 0.00 75 1017.9
20200930012927 15 220 0.0 0.0 0.00 0.00 0.00 74 1018.0
20200930011426 15 220 0.0 0.0 0.00 0.00 0.00 74 1018.0
20200930005935 15 220 0.0 0.0 0.00 0.00 0.00 76 1018.0
20200930005924 15 220 0.0 0.0 0.00 0.00 0.00 74 1018.0
20200930004422 15 220 0.0 0.0 0.00 0.00 0.00 76 1018.0
20200930003706 16 175 0.0 0.0 0.00 0.00 0.00 73 1017.9
20200930002922 15 220 0.0 3.2 0.00 0.00 0.00 76 1018.1
20200930001420 16 221 0.0 0.0 0.00 0.00 0.00 73 1018.1
20200929235917 16 175 0.0 0.0 0.00 0.00 0.00 73 1017.9
20200929234417 16 175 0.0 0.0 0.00 0.00 0.00 73 1017.9
20200929233654 15 175 0.0 0.0 0.00 0.00 0.00 73 1018.1
20200929232920 15 175 0.0 0.0 0.00 0.00 0.00 73 1018.1
20200929231421 15 175 0.0 0.0 0.00 0.00 0.00 73 1018.1
20200929230653 16 175 0.0 0.0 0.00 0.00 0.00 72 1018.1
20200929225915 16 175 0.0 0.0 0.00 0.00 0.00 72 1018.1
20200929224416 16 175 0.0 0.0 0.00 0.00 0.00 71 1018.1
20200929222915 16 126 0.0 0.0 0.00 0.00 0.00 70 1018.0
20200929221413 17 126 0.0 1.6 0.00 0.00 0.00 69 1018.0
20200929220649 17 126 0.0 0.0 0.00 0.00 0.00 67 1018.1
20200929215914 17 126 0.0 0.0 0.00 0.00 0.00 67 1018.1
20200929214412 17 88 0.0 0.0 0.00 0.00 0.00 68 1018.1
20200929213645 17 88 0.0 0.0 0.00 0.00 0.00 67 1018.3
20200929212908 17 88 0.0 0.0 0.00 0.00 0.00 67 1018.3
20200929211405 17 88 0.0 0.0 0.00 0.00 0.00 66 1018.3
20200929210643 17 88 0.0 0.0 0.00 0.00 0.00 66 1018.3
20200929205904 17 88 0.0 0.0 0.00 0.00 0.00 66 1018.3
20200929204403 18 238 0.0 0.0 0.00 0.00 0.00 65 1018.2
20200929202902 18 238 0.0 0.0 0.00 0.00 0.00 63 1018.2
20200929202139 18 238 0.0 0.0 0.00 0.00 0.00 63 1018.1
20200929201403 18 238 0.0 0.0 0.00 0.00 0.00 63 1018.1
20200929200639 18 238 0.0 0.0 0.00 0.00 0.00 62 1018.0
20200929195901 18 238 0.0 0.0 0.00 0.00 0.00 62 1018.0
20200929194402 18 238 0.0 0.0 0.00 0.00 0.00 64 1018.0
20200929192902 18 238 0.0 0.0 0.00 0.00 0.00 64 1017.9
20200929192139 19 238 0.0 0.0 0.00 0.00 0.00 61 1017.7
20200929191404 19 238 0.0 0.0 0.00 0.00 0.00 61 1017.7
20200929185903 19 238 1.6 4.8 0.00 0.00 0.00 58 1017.8
20200929185139 20 221 1.6 6.4 0.00 0.00 0.00 56 1017.7
20200929184401 20 221 1.6 6.4 0.00 0.00 0.00 56 1017.7
20200929182901 20 218 0.0 0.0 0.00 0.00 0.00 56 1017.6
20200929181404 21 232 0.0 3.2 0.00 0.00 0.00 57 1017.3
20200929175858 21 232 1.6 8.0 0.00 0.00 0.00 56 1017.3
20200929174404 22 237 0.0 6.4 0.00 0.00 0.00 56 1017.0
20200929174354 21 251 1.6 11.3 0.00 0.00 0.00 55 1017.2
20200929172854 22 237 0.0 6.4 0.00 0.00 0.00 56 1017.0
20200929172130 22 246 0.0 12.9 0.00 0.00 0.00 56 1017.0
20200929171353 22 246 0.0 12.9 0.00 0.00 0.00 56 1017.0
20200929170630 23 225 3.2 12.9 0.00 0.00 0.00 54 1016.9
20200929165851 23 225 3.2 12.9 0.00 0.00 0.00 54 1016.9
20200929165131 23 238 0.0 16.1 0.00 0.00 0.00 53 1016.8
20200929164351 23 238 0.0 16.1 0.00 0.00 0.00 53 1016.8
20200929163750 25 276 1.6 6.4 0.00 0.00 0.00 45 1016.8
20200929163630 24 244 1.6 12.9 0.00 0.00 0.00 52 1016.8
20200929162851 24 244 1.6 12.9 0.00 0.00 0.00 52 1016.8
20200929161351 25 234 3.2 11.3 0.00 0.00 0.00 50 1016.8
20200929155852 25 276 1.6 6.4 0.00 0.00 0.00 45 1016.8
20200929155125 25 245 1.6 9.7 0.00 0.00 0.00 42 1016.9
20200929154353 25 245 1.6 9.7 0.00 0.00 0.00 42 1016.9
20200929152848 25 270 1.6 9.7 0.00 0.00 0.00 42 1016.8
20200929152123 25 252 1.6 4.8 0.00 0.00 0.00 43 1016.7
20200929151349 25 252 1.6 4.8 0.00 0.00 0.00 43 1016.7
20200929150626 25 221 1.6 6.4 0.00 0.00 0.00 42 1016.9
20200929145852 25 194 1.6 12.9 0.00 0.00 0.00 42 1016.8
20200929145843 25 221 1.6 6.4 0.00 0.00 0.00 42 1016.9
20200929144456 25 188 1.6 8.0 0.00 0.00 0.00 42 1017.1
20200929144343 25 194 1.6 12.9 0.00 0.00 0.00 42 1016.8
20200929142846 25 244 1.6 4.8 0.00 0.00 0.00 44 1016.9
20200929141344 25 188 1.6 8.0 0.00 0.00 0.00 42 1017.1
20200929140625 25 245 0.0 6.4 0.00 0.00 0.00 41 1017.4
20200929135845 25 229 0.0 4.8 0.00 0.00 0.00 40 1017.2
20200929135127 24 230 1.6 8.0 0.00 0.00 0.00 44 1017.8
20200929134343 25 245 0.0 6.4 0.00 0.00 0.00 41 1017.4
20200929132842 25 266 3.2 8.0 0.00 0.00 0.00 44 1017.6
20200929131342 25 204 3.2 8.0 0.00 0.00 0.00 45 1017.7
20200929125841 24 230 1.6 8.0 0.00 0.00 0.00 44 1017.8
20200929125123 24 226 0.0 1.6 0.00 0.00 0.00 45 1017.9
20200929124338 24 226 0.0 1.6 0.00 0.00 0.00 45 1017.9
20200929122839 23 245 0.0 1.6 0.00 0.00 0.00 46 1018.1
20200929122115 23 235 1.6 4.8 0.00 0.00 0.00 46 1018.2
20200929121337 23 235 1.6 4.8 0.00 0.00 0.00 46 1018.2
20200929115838 23 249 3.2 11.3 0.00 0.00 0.00 46 1018.3
20200929114340 23 244 0.0 4.8 0.00 0.00 0.00 46 1018.3
20200929112838 22 200 0.0 0.0 0.00 0.00 0.00 49 1018.3
20200929112112 22 241 1.6 6.4 0.00 0.00 0.00 53 1018.6
20200929111337 22 241 1.6 6.4 0.00 0.00 0.00 53 1018.6
20200929105838 22 238 0.0 1.6 0.00 0.00 0.00 54 1018.6
20200929104345 21 236 0.0 3.2 0.00 0.00 0.00 63 1018.5
20200929104340 21 232 0.0 0.0 0.00 0.00 0.00 60 1018.6
20200929102835 21 236 0.0 3.2 0.00 0.00 0.00 63 1018.5
20200929101335 20 231 0.0 0.0 0.00 0.00 0.00 65 1018.5
20200929095834 20 227 0.0 1.6 0.00 0.00 0.00 63 1018.5
20200929095110 20 155 0.0 3.2 0.00 0.00 0.00 63 1018.3
20200929094333 20 155 0.0 3.2 0.00 0.00 0.00 63 1018.3
20200929093608 21 126 0.0 0.0 0.00 0.00 0.00 60 1018.5
20200929092831 21 126 0.0 0.0 0.00 0.00 0.00 60 1018.5
20200929092103 21 92 0.0 0.0 0.00 0.00 0.00 58 1018.3
20200929091326 21 92 0.0 0.0 0.00 0.00 0.00 58 1018.3
20200929090606 20 98 0.0 1.6 0.00 0.00 0.00 56 1018.1
20200929090047 20 84 0.0 0.0 0.00 0.00 0.00 61 1018.2
20200929085827 20 98 0.0 1.6 0.00 0.00 0.00 56 1018.1
20200929084335 19 96 0.0 0.0 0.00 0.00 0.00 61 1018.2
20200929084327 20 84 0.0 0.0 0.00 0.00 0.00 61 1018.2
20200929082823 19 96 0.0 0.0 0.00 0.00 0.00 61 1018.2
20200929082107 18 103 0.0 4.8 0.00 0.00 0.00 56 1018.1
20200929081322 19 96 0.0 6.4 0.00 0.00 0.00 58 1018.2
20200929075822 18 103 0.0 4.8 0.00 0.00 0.00 56 1018.1
20200929075104 18 111 0.0 6.4 0.00 0.00 0.00 59 1018.0
20200929074320 18 111 0.0 6.4 0.00 0.00 0.00 59 1018.0
20200929072820 17 135 0.0 6.4 0.00 0.00 0.00 58 1017.9
20200929071320 17 98 0.0 11.3 0.00 0.00 0.00 59 1017.7
20200929065820 16 115 0.0 6.4 0.00 0.00 0.00 61 1017.6
20200929064316 16 123 3.2 14.5 0.00 0.00 0.00 63 1017.4
20200929063605 16 123 0.0 6.4 0.00 0.00 0.00 62 1017.3
20200929062822 16 110 1.6 6.4 0.00 0.00 0.00 62 1017.3
20200929061320 16 123 0.0 6.4 0.00 0.00 0.00 62 1017.3
20200929055814 16 134 0.0 6.4 0.00 0.00 0.00 63 1017.1
20200929055310 16 152 0.0 0.0 0.00 0.00 0.00 67 1017.0
20200929054318 16 136 0.0 0.0 0.00 0.00 0.00 66 1017.0
20200929053551 16 124 0.0 0.0 0.00 0.00 0.00 66 1017.1
20200929052814 16 124 0.0 0.0 0.00 0.00 0.00 66 1017.1
20200929052052 17 152 0.0 0.0 0.00 0.00 0.00 65 1017.1
20200929051310 16 98 0.0 0.0 0.00 0.00 0.00 67 1017.1
20200929045810 17 152 0.0 0.0 0.00 0.00 0.00 65 1017.1
20200929044310 16 152 0.0 0.0 0.00 0.00 0.00 67 1017.0
20200929042810 15 213 0.0 0.0 0.00 0.00 0.00 72 1017.0
20200929042047 15 219 0.0 0.0 0.00 0.00 0.00 73 1017.0
20200929041310 15 219 0.0 0.0 0.00 0.00 0.00 73 1017.0
20200929040549 15 219 0.0 0.0 0.00 0.00 0.00 72 1017.0
20200929035811 15 219 0.0 0.0 0.00 0.00 0.00 72 1017.0
20200929034306 16 219 0.0 0.0 0.00 0.00 0.00 71 1017.0
20200929032816 17 140 0.0 0.0 0.00 0.00 0.00 66 1016.9
20200929032806 16 219 0.0 0.0 0.00 0.00 0.00 72 1017.0
20200929031304 17 140 0.0 0.0 0.00 0.00 0.00 66 1016.9